Location: Il Ritiro
(43.4167°N, 13.1333°E)
Time: 17:06:56
(UTC+00:00)

Cosmos 2074 Rocket - Pass Details

Date: 05 July 2020
Orbit: 967 x 986 km, 82.9° (Epoch: 10 August)

Event Time Altitude Azimuth Distance (km) Brightness Sun altitude
Exits shadow 21:29:13 26° 193° (SSW) 1,811 5.0 -19.8°
Maximum altitude 21:32:57 81° 278° (W) 989 4.0 -20.1°
Drops below altitude 10° 21:39:12 10° 6° (N) 2,722 7.2 -20.5°
Sets 21:41:43 0° 8° (N) 3,671 8.0 -20.7°
